WJ4X-13 Weather Reports


time (UTC)temp
F
wind
direction
speed
knots
gust
knots
rain 1hr
in
rain 24hr
in
rain mn
in
humidity
%
barometer
mb
20260509031552 58 360 0.0 0.0 0.00 0.00 0.00 96 1016.5
20260509024550 59 360 0.0 0.0 0.00 0.00 0.00 96 1016.6
20260509023052 59 360 0.0 0.0 0.00 0.00 0.00 95 1016.2
20260509021549 59 360 0.0 0.0 0.00 0.00 0.00 95 1016.2
20260509020049 59 360 0.0 0.0 0.00 0.00 0.00 95 1016.2
20260509014547 60 360 0.0 0.0 0.00 0.00 0.00 94 1016.2
20260509013103 60 360 0.0 0.0 0.00 0.00 0.00 94 1016.1
20260509011549 61 360 0.0 0.0 0.00 0.00 0.00 93 1016.0
20260509010046 61 360 0.0 0.0 0.00 0.00 0.00 91 1015.7
20260509004545 62 360 0.0 0.0 0.00 0.00 0.00 91 1015.6
20260509003106 62 360 0.0 0.0 0.00 0.00 0.00 89 1015.6
20260509001545 63 360 0.0 0.0 0.00 0.00 0.00 87 1015.7
20260509000047 64 360 0.0 0.0 0.00 0.00 0.00 85 1015.6
20260508234543 64 360 0.0 0.0 0.00 0.00 0.00 84 1015.3
20260508233041 65 360 0.0 0.0 0.00 0.00 0.00 84 1015.4
20260508231547 65 360 0.0 0.0 0.00 0.00 0.00 82 1015.5
20260508230039 65 360 0.0 0.0 0.00 0.00 0.00 80 1015.4
20260508224543 66 360 0.0 0.0 0.00 0.00 0.00 77 1015.6
20260508223039 66 360 0.0 0.0 0.00 0.00 0.00 78 1015.6
20260508221540 67 360 0.0 0.0 0.00 0.00 0.00 75 1015.6
20260508220037 67 360 0.0 0.0 0.00 0.00 0.00 75 1015.5
20260508214536 68 360 0.0 0.0 0.00 0.00 0.00 72 1015.6
20260508213037 69 360 0.0 0.0 0.00 0.00 0.00 71 1015.4
20260508211536 69 360 0.0 0.0 0.00 0.00 0.00 68 1015.8
20260508210035 70 360 0.0 0.0 0.00 0.00 0.00 66 1015.6
20260508204535 70 360 0.0 0.0 0.00 0.00 0.00 64 1015.5
20260508203042 70 360 0.0 0.0 0.00 0.00 0.00 62 1015.6
20260508201534 71 360 0.0 0.0 0.00 0.00 0.00 60 1016.0
20260508200036 71 360 0.0 0.0 0.00 0.00 0.00 60 1016.2
20260508194533 71 360 0.0 0.0 0.00 0.00 0.00 61 1016.2
20260508193031 71 360 0.0 0.0 0.00 0.00 0.00 56 1016.4
20260508191534 70 360 0.0 0.0 0.00 0.00 0.00 55 1016.5
20260508190038 71 360 0.0 0.0 0.00 0.00 0.00 59 1016.9
20260508184529 71 360 0.0 0.0 0.00 0.00 0.00 57 1017.0
20260508183031 69 360 0.0 0.0 0.00 0.00 0.00 59 1017.3
20260508181529 70 360 0.0 0.0 0.00 0.00 0.00 61 1017.4
20260508180028 71 360 0.0 0.0 0.00 0.00 0.00 66 1017.6
20260508174538 70 360 0.0 0.0 0.00 0.00 0.00 61 1017.8
20260508173026 69 360 0.0 0.0 0.00 0.00 0.00 56 1018.2
20260508171524 68 360 0.0 0.0 0.00 0.00 0.00 68 1018.0
20260508170031 68 360 0.0 0.0 0.00 0.00 0.00 61 1018.5
20260508164521 67 360 0.0 0.0 0.00 0.00 0.00 63 1018.8
20260508163037 67 360 0.0 0.0 0.00 0.00 0.00 61 1018.9
20260508161520 68 360 0.0 0.0 0.00 0.00 0.00 65 1019.1
20260508160024 66 360 0.0 0.0 0.00 0.00 0.00 71 1019.3
20260508154518 66 360 0.0 0.0 0.00 0.03 0.00 68 1019.6
20260508153025 67 360 0.0 0.0 0.00 0.03 0.00 68 1019.7
20260508151522 64 360 0.0 0.0 0.00 0.03 0.00 72 1019.8
20260508150012 64 360 0.0 0.0 0.00 0.03 0.00 74 1019.7
20260508144509 63 360 0.0 0.0 0.00 0.08 0.00 74 1019.4
20260508143008 63 360 0.0 0.0 0.00 0.08 0.00 75 1019.5
20260508141508 63 360 0.0 0.0 0.00 0.08 0.00 77 1019.8
20260508140005 62 360 0.0 0.0 0.00 0.08 0.00 80 1019.9
20260508134501 61 360 0.0 0.0 0.00 0.38 0.00 76 1019.8
20260508133106 60 360 0.0 0.0 0.00 0.38 0.00 80 1019.7
20260508131558 59 360 0.0 0.0 0.00 0.38 0.00 81 1019.7
20260508130105 57 360 0.0 0.0 0.00 0.38 0.00 85 1019.6
20260508124549 58 360 0.0 0.0 0.00 0.69 0.00 85 1019.3
20260508123045 57 360 0.0 0.0 0.00 0.69 0.00 90 1018.9
20260508121544 54 360 0.0 0.0 0.00 0.69 0.00 99 1018.9
20260508120045 52 360 0.0 0.0 0.00 0.69 0.00 98 1018.7
20260508114541 51 360 0.0 0.0 0.00 1.13 0.00 98 1018.7
20260508113048 50 360 0.0 0.0 0.00 1.13 0.00 98 1018.4
20260508111536 49 360 0.0 0.0 0.00 1.13 0.00 98 1018.0
20260508110046 48 360 0.0 0.0 0.00 1.13 0.00 97 1017.6
20260508104530 49 360 0.0 0.0 0.00 1.23 0.00 97 1017.3
20260508103035 49 360 0.0 0.0 0.00 1.23 0.00 97 1017.1
20260508101534 49 360 0.0 0.0 0.00 1.23 0.00 97 1017.0
20260508100024 49 360 0.0 0.0 0.00 1.23 0.00 97 1016.6
20260508094524 49 360 0.0 0.0 0.00 1.27 0.00 98 1016.5
20260508093039 49 360 0.0 0.0 0.00 1.27 0.00 97 1016.4
20260508091524 49 360 0.0 0.0 0.00 1.27 0.00 97 1016.4
20260508090028 49 360 0.0 0.0 0.00 1.27 0.00 97 1016.0
20260508084517 49 360 0.0 0.0 0.00 1.30 0.00 97 1016.0
20260508083023 49 360 0.0 0.0 0.00 1.30 0.00 97 1016.0
20260508081515 50 360 0.0 0.0 0.00 1.30 0.00 97 1016.0
20260508080023 50 360 0.0 0.0 0.00 1.30 0.00 97 1015.8
20260508074515 50 360 0.0 0.0 0.00 1.34 0.00 96 1015.7
20260508073012 50 360 0.0 0.0 0.00 1.34 0.00 97 1015.9
20260508071510 51 360 0.0 0.0 0.00 1.34 0.00 96 1015.7
20260508070007 51 360 0.0 0.0 0.00 1.34 0.00 96 1015.7
20260508064511 51 360 0.0 0.0 0.00 1.41 0.00 96 1015.6
20260508063005 52 360 0.0 0.0 0.00 1.41 0.00 96 1015.6
20260508061504 52 360 0.0 0.0 0.00 1.41 0.00 96 1015.5
20260508060002 52 360 0.0 0.0 0.00 1.41 0.00 95 1015.4
20260508054640 53 360 0.0 0.0 0.00 1.41 0.00 95 1015.5
20260508053100 53 360 0.0 0.0 0.00 1.41 0.00 95 1015.7
20260508051556 54 360 0.0 0.0 0.00 1.41 0.00 95 1015.7
20260508050054 54 360 0.0 0.0 0.00 1.41 0.00 94 1015.5
20260508044600 55 360 0.0 0.0 0.00 1.45 0.00 94 1015.5
20260508043050 55 360 0.0 0.0 0.00 1.45 0.00 93 1015.3
20260508041555 56 360 0.0 0.0 0.00 1.45 0.00 93 1015.3
20260508040052 56 360 0.0 0.0 0.00 1.45 0.00 93 1015.2
20260508034543 57 360 0.0 0.0 0.00 1.54 1.45 91 1015.0
20260508033040 58 360 0.0 0.0 0.00 1.54 1.45 90 1015.1